Location: Henry Coe State Park
(37.1875°N, 121.5503°W)
Time: 09:43:29
(UTC-07:00)

Daily predictions for brighter satellites

Satellite Brightness Start Highest point End
(mag) Time Altitude Azimuth Time Altitude Azimuth Time Altitude Azimuth
NOSS 3-4 (A) 4.3 20:00:47 10° NNW 20:07:28 45° NE 20:14:30 10° ESE
NOSS 3-4 (C) 4.3 20:00:54 10° NNW 20:07:35 44° NE 20:14:36 10° ESE
Cosmos 2297 Rocket 3.6 20:05:42 10° N 20:09:51 21° NE 20:14:01 10° ESE
Cosmos 1570 Rocket 4.2 20:08:28 10° S 20:13:35 52° ESE 20:18:42 10° NNE
CZ-4B DEB 3.0 20:13:03 10° SSE 20:16:14 54° ENE 20:19:28 10° N
FREGAT/IRIS 4.5 20:14:20 10° SSW 20:17:14 35° W 20:20:10 10° NNW
Helios 1B rocket 3.6 20:17:02 10° N 20:21:02 49° WNW 20:24:59 10° SSW
Meteor 2-16 Rocket 4.5 20:15:32 10° S 20:21:29 60° E 20:27:27 10° NNE
Cosmos 1821 Rocket 3.9 20:15:50 10° S 20:21:56 76° E 20:28:01 10° N
OAO 2 Rocket 3.8 20:17:51 10° SW 20:22:37 45° SSE 20:27:29 10° E
Cosmos 1605 Rocket 4.3 20:18:58 10° SSE 20:24:57 45° E 20:30:53 10° NNE
NOSS 7 (E) 4.3 20:27:36 10° SSW 20:31:11 86° ESE 20:34:32 10° NNE
Cosmos 1975 3.8 20:28:47 10° SSE 20:32:16 27° E 20:35:46 10° NNE
Iridium 4 Rocket 4.4 20:28:56 10° NNE 20:33:13 27° E 20:36:38 13° SE
Cosmos 2219 4.2 20:28:20 10° NNW 20:33:43 48° WSW 20:39:05 10° S
Okean 2 3.3 20:30:06 10° N 20:34:16 70° E 20:38:24 10° SSE
DELTA 2 R/B (1) 3.8 20:30:31 10° W 20:36:04 69° N 20:41:10 12° E
Helios 1A 4.4 20:32:39 10° S 20:36:34 40° W 20:40:31 10° NNW
NOSS 7 (H) 4.3 20:37:43 10° SSW 20:40:59 57° ESE 20:44:14 10° NE
Lacrosse 5 rocket 2.5 20:40:11 10° NNW 20:43:16 24° NE 20:45:09 16° E
H-2A R/B 3.8 20:43:39 13° E 20:44:35 14° ENE 20:46:46 10° NNE
Cosmos 1697 Rocket 3.4 20:41:59 10° SSE 20:46:47 29° ESE 20:51:35 10° NE
H-2A R/B 2.7 20:44:36 10° SSE 20:48:28 89° WSW 20:52:23 10° NNW
Meteor 2-4 Rocket 4.4 20:42:42 10° NNW 20:48:28 60° W 20:54:16 10° S
ALOS 2.4 20:43:58 10° S 20:48:38 77° WSW 20:53:20 10° NNW
Cosmos 1892 Rocket 4.0 20:44:30 10° NNW 20:48:57 66° W 20:53:23 10° S
Cosmos 2278 3.7 20:43:31 10° SSW 20:49:11 90° ESE 20:54:55 10° NNE
Cosmos 1626 Rocket 4.0 20:45:53 10° N 20:50:02 40° ENE 20:52:45 19° SE
ERS-1 Rocket 3.6 20:47:45 17° SE 20:51:03 37° ENE 20:55:39 10° N
Cosmos 1455 Rocket 3.2 20:47:48 10° SSW 20:52:06 75° W 20:56:28 10° N
EO 1 Delta rocket 4.0 20:47:43 10° N 20:52:25 88° WNW 20:57:50 10° S
Cosmos 1461 2.9 20:51:45 10° NNW 20:55:45 56° ENE 20:57:43 26° SE
Cosmos 2123 Rocket 3.9 20:49:57 10° N 20:56:10 87° E 21:02:21 10° S
Cosmos 1602 Rocket 3.8 20:54:10 10° N 20:58:32 51° E 21:01:15 21° SSE
BREEZE-M DEB (TANK) 4.2 20:56:49 10° WSW 21:00:40 79° NNW 21:14:27 10° NE
Meteor 1-12 Rocket 4.2 20:55:05 10° S 21:00:45 73° E 21:06:34 10° NNE
Cosmos 2369 3.8 20:56:53 10° SSW 21:02:33 79° WNW 21:08:17 10° NNE
Cosmos 1939 Rocket 3.5 21:03:34 29° ESE 21:04:54 38° ENE 21:08:45 10° N
CZ-2D R/B 4.2 21:01:48 10° S 21:05:31 47° W 21:09:17 10° NNW
SL-24 R/B - RUBIN 2 4.2 21:02:05 10° SSW 21:07:43 68° ESE 21:14:04 10° NE
Cosmos 1980 Rocket 3.0 21:08:26 26° ESE 21:08:57 27° ESE 21:13:37 10° NE
Cosmos 1459 Rocket 4.4 21:05:51 20° SE 21:09:31 39° E 21:15:05 10° NNE
Resurs 01 Rocket 4.4 21:07:22 10° SW 21:10:23 18° W 21:13:27 10° NW
Hubble Space Telescope 2.7 21:10:21 10° SW 21:12:57 16° SSW 21:13:46 15° S
Cosmos 468 Rocket 4.0 21:09:38 10° S 21:14:35 51° ESE 21:19:32 10° NNE
USA 186 3.3 21:13:12 10° SSW 21:16:03 34° W 21:18:49 10° NNW
Lacrosse 5 3.3 21:12:33 10° NNW 21:16:44 25° NE 21:18:37 20° ENE
Cosmos 2084 4.4 21:14:43 10° NNW 21:18:21 30° NE 21:18:58 28° ENE
Tiangong 1 2.8 21:16:42 10° WNW 21:19:25 27° N 21:20:22 23° NNE
OTV 4 0.4 21:16:58 10° W 21:19:48 68° SW 21:19:48 68° SW
SPOT 5 3.7 21:20:37 32° E 21:21:33 35° ENE 21:25:58 10° N
Cosmos 1153 Rocket 4.4 21:15:39 10° S 21:21:52 90° ENE 21:28:03 10° N
Cosmos 220 Rocket 3.8 21:17:56 10° NNW 21:22:09 71° ENE 21:23:16 46° SE
Cosmos 1814 Rocket 4.1 21:17:41 10° S 21:22:51 52° ESE 21:28:00 10° NNE
Cosmos 1346 Rocket 4.4 21:19:17 10° NNW 21:22:53 34° W 21:26:30 10° SSW
Delta 2 Rocket 4.2 21:21:32 10° W 21:26:56 52° SSW 21:28:23 39° SSE
Cosmos 1500 3.0 21:28:22 40° S 21:29:38 89° W 21:33:25 10° N
CZ-4 DEB 3.3 21:32:14 49° SW 21:32:37 53° W 21:35:43 10° NNW
RESURS DK-1 3.5 21:30:58 10° N 21:34:13 29° NE 21:34:13 29° NE
Cosmos 1802 Rocket 4.1 21:32:30 30° SSE 21:35:32 57° E 21:41:49 10° NNE
Cosmos 2227 Rocket 2.8 21:33:07 10° NNW 21:38:35 52° WSW 21:42:03 22° S
Cosmos 858 Rocket 4.5 21:37:22 10° NNW 21:42:39 68° ENE 21:43:35 56° ESE
Cosmos 1656 4.0 21:37:18 10° SSW 21:42:52 65° WNW 21:48:25 10° NNE
Cosmos 1340 4.2 21:42:39 10° N 21:44:44 27° NNE 21:44:44 27° NNE
Cosmos 2298 Rocket 3.9 21:42:52 10° NNW 21:48:12 87° WSW 21:49:29 53° SSE
Cosmos 2016 Rocket 3.9 21:52:14 51° SSE 21:53:38 66° E 21:59:44 10° NNE
Cosmos 2297 Rocket 2.7 21:48:44 10° NNW 21:54:14 54° WSW 21:56:28 34° SSW
SL-19 R/B 4.5 21:50:36 10° NNE 21:55:05 47° ENE 21:55:05 47° ENE
Envisat 3.2 21:54:39 42° SSW 21:56:14 65° WSW 22:01:18 10° NNW
YAOGAN 6 4.1 21:58:34 30° N 21:58:34 30° N 22:00:38 10° N
H-2A R/B 3.7 22:00:30 19° NE 22:00:30 19° NE 22:02:49 10° NNE
Terra 4.0 22:02:30 14° NE 22:02:30 14° NE 22:03:51 10° NNE
Cosmos 1743 3.6 22:03:31 49° NNW 22:03:31 49° NNW 22:06:34 10° N
Cosmos 1937 Rocket 3.3 21:58:34 10° NNW 22:03:52 84° ENE 22:04:03 82° ESE
ASTEX 1 3.3 22:00:45 10° N 22:05:29 77° NE 22:05:29 77° NE
Cosmos 2173 Rocket 4.2 22:02:02 21° SSW 22:06:26 71° W 22:12:47 10° N
OAO 2 Rocket 3.5 22:02:09 10° W 22:06:29 60° SW 22:06:29 60° SW
Cosmos 2098 Rocket 4.1 22:07:38 60° SE 22:08:33 66° E 22:14:42 10° NNE
Cosmos 1825 Rocket 4.0 22:05:54 10° N 22:09:38 61° NNW 22:09:38 61° NNW
Cosmos 2150 Rocket 4.4 22:09:55 10° NNW 22:14:56 55° WSW 22:15:23 53° SW
USA 245 4.3 22:15:08 74° ESE 22:15:27 77° ENE 22:21:49 10° N
SPOT 1/Viking Rocket 3.8 22:18:31 61° NNE 22:18:31 61° NNE 22:22:59 10° N
MetOp-A 4.1 22:17:45 73° WSW 22:17:57 74° WSW 22:23:19 10° NNW
Cosmos 1953 Rocket 4.4 22:14:54 10° N 22:18:06 47° NNW 22:18:06 47° NNW
Cosmos 990 Rocket 4.1 22:14:14 10° NNW 22:18:54 70° N 22:18:54 70° N
H-2A R/B 3.2 22:20:48 38° WNW 22:20:48 38° WNW 22:24:07 10° NNW
Cosmos 1864 Rocket 4.4 22:21:48 67° ENE 22:21:48 67° ENE 22:27:21 10° N
Lacrosse 5 rocket 3.4 22:19:16 10° WNW 22:20:53 21° W 22:20:53 21° W
DELTA 2 R/B (1) 3.8 22:17:05 10° WNW 22:21:55 64° WSW 22:21:55 64° WSW
Tsikada Rocket 4.1 22:19:17 10° N 22:25:17 64° ENE 22:25:17 64° ENE
Cosmos 1697 Rocket 4.1 22:25:27 10° SW 22:30:35 35° WNW 22:35:44 10° N
SL-16 R/B 4.1 22:39:10 19° NE 22:39:10 19° NE 22:40:43 10° NNE
NOAA 11 4.5 22:38:49 64° NNW 22:38:49 64° NNW 22:43:26 10° NNW
Cosmos 1763 Rocket 4.4 22:44:11 45° NW 22:44:11 45° NW 22:48:38 10° N
Cosmos 1725 Rocket 4.3 22:52:03 63° WNW 22:52:03 63° WNW 22:58:05 10° N
Cosmos 1980 Rocket 3.4 22:50:00 24° WSW 22:52:43 38° WNW 22:58:01 10° N
ARGOS 4.0 22:53:55 48° NW 22:53:55 48° NW 22:58:03 10° NNW
Lacrosse 5 3.4 22:55:01 10° NW 22:57:49 32° WNW 22:57:49 32° WNW
USA 215 3.6 23:19:35 59° NNW 23:19:35 59° NNW 23:24:49 10° NW
Cosmos 2322 Rocket 3.9 23:26:55 28° N 23:26:55 28° N 23:29:37 10° NNE
Cosmos 2263 Rocket 3.8 23:18:53 10° NNW 23:21:38 29° N 23:21:38 29° N
Terra 4.3 23:41:24 18° NNW 23:41:24 18° NNW 23:42:45 10° NNW
H-2A R/B 4.2 23:41:08 21° NW 23:41:08 21° NW 23:42:57 10° NNW
